Find Starlink 11141

NORAD ID: 60066 Int'l Des: 2024-113 Owner: SPXS Country: US Constellation: starlink operational
又名: STARLINK-11141 [DTC] celestrak
LEOCIRCULAR

当前视图

正在加载3D地球...

About Starlink 11141

Starlink 11141 (NORAD 60066) is a starlink constellation satellite (v2 mini d2c) launched Jun 19, 2024 by SPXS of US. It operates in LEO, CIRCULAR orbit with a mass of 960.00 kg.

即将过境

Passes for default location (London). Set your location on the main map for personalized predictions.

高度历史

Loading altitude history...

两行轨道根数

1 60066U 24113H 26264.40176756 .00001138 00000-0 14252-4 0 9996
2 60066 53.1593 306.1526 0001233 95.0918 265.0241 15.69708367130309
Epoch: Sep 21, 2026 • Age: 32 hours

当前状态

高度 360.0 km
远地点 / 近地点 N/A
速度 7.70 km/s
星下点 21.12°N, 46.98°E
发射日期 Jun 19, 2024
运行时间 2.2 years
类型 internet

技术详情

分类 Payload
质量 960.00 kg
干质量 910.00 kg
长度 0.30 m
跨度 29.00 m
形状 ? Box + pan
制造商 SPXS
平台类型 Starlink V2MD
阶段状态 In Orbit
所有者/国家 SPXS/US

Most Searched